ZHONGXING-26

Last updated on Thu Oct 30 2025 00:02:52 GMT+0000 (Coordinated Universal Time)

1 55686U 23023A 25301.85365131 -.00000344 00000+0 00000+0 0 9993 2 55686 0.0571 69.1176 0000530 73.3622 327.3735 1.00268152 9910
UTC large
Height (km)
Speed (km/s)
/
Latitude / Longitude
Inclination (degrees)
Orbital Period (minutes)
Azimuth
Elevation
Range (km)
Doppler Factor

Next 0 passes for location: London (51.5072 / 0.1276)

Sorry there are no passes over London.